Preview of NWS' New Version of Forecast
This preview is not operational and should not be used for support decisions.

Regional Weather Roundup (RWR)

Issued by National Weather Service (NWS)

                            
000
ASUS45 KBOI 180010
RWRID 

IDAHO REGIONAL WEATHER ROUNDUP
NATIONAL WEATHER SERVICE BOISE ID
500 PM MST SUN FEB 17 2019

NOTE: "FAIR" INDICATES FEW OR NO CLOUDS BELOW 12000 FEET
WITH NO SIGNIFICANT WEATHER AND/OR OBSTRUCTIONS TO VISIBILITY

IDZ012-014-180100-
SOUTHWEST IDAHO

  
CITY           SKY/WX    TMP DP  RH WIND       PRES   REMARKS
BOISE          PTSUNNY   36  27  69 NW10      29.94R WCI  28          
CALDWELL       CLOUDY    37  30  75 NW5       29.97R WCI  33          
MOUNTAIN HOME  PTSUNNY   37  35  91 NW13        N/A  WCI  29          
$$

IDZ016-017-180100-
SOUTHCENTRAL IDAHO

  
CITY           SKY/WX    TMP DP  RH WIND       PRES   REMARKS
BURLEY         CLOUDY    29  21  72 NE7         N/A  WCI  22          
JEROME         LGT SNOW  29  23  78 N3        29.89R                  
TWIN FALLS     LGT SNOW  26  24  92 CALM      29.88R VSB 1            
$$

IDZ019>023-180100-
SOUTHEAST IDAHO

  
CITY           SKY/WX    TMP DP  RH WIND       PRES   REMARKS
IDAHO FALLS    CLEAR     25  16  68 NE6       29.87S WCI  18          
POCATELLO      MOSUNNY   29  21  72 NE10      29.86R WCI  20          
REXBURG        CLEAR     29  18  63 N3        29.86R                  
$$

IDZ006-010-011-018-031-032-180100-
CENTRAL IDAHO MOUNTAINS

  
CITY           SKY/WX    TMP DP  RH WIND       PRES   REMARKS
MCCALL         HVY SNOW  26  22  84 NW8       29.84R VSB 1/4 WCI  18  
HAILEY         PTSUNNY   25  18  74 N3        29.85R                  
STANLEY          N/A     26   8  46 CALM      29.78R                  
SALMON         PTCLDY    28  15  58 N5        29.89R WCI  23          
CHALLIS        MOSUNNY   28  15  58 CALM      29.83R                  
$$

IDZ002-004-006-007-026-180100-
NORTHERN IDAHO

  
CITY           SKY/WX    TMP DP  RH WIND       PRES   REMARKS
LEWISTON       CLOUDY    34  26  72 W8        30.09R WCI  27          
LOWELL           N/A     37  29  72 SE6       30.04R WCI  32          
COEUR D'ALENE  PTSUNNY   24  16  71 N16       30.12R WCI  11          
MULLAN PASS    LGT SNOW   9   5  84 CALM      29.88R VSB 3/4          
$$